This is the latest recevied weather packets stored in our database for station/object KF0WJA. If no packets are shown the sender has not sent any weather packets the latest 10 day(s).
| Time | Temp. | Humidity | Pressure | Rain* | Wind** | Luminosity | Snow |
|---|---|---|---|---|---|---|---|
| 1787409480 | 22.78° C | 93% | 1020.3 hPa | 0 mm | - | 27 W/m² | - |
| 1787409176 | 22.78° C | 92% | 1020.6 hPa | 1.78 mm | - | 22 W/m² | - |
| 1787408871 | 22.78° C | 91% | 1020.9 hPa | 1.78 mm | - | 24 W/m² | - |
| 1787408566 | 22.78° C | 91% | 1020.9 hPa | 1.78 mm | - | 25 W/m² | - |
| 1787408261 | 22.78° C | 90% | 1020.8 hPa | 1.78 mm | - | 34 W/m² | - |
| 1787407958 | 22.78° C | 90% | 1021.3 hPa | 0 mm | - | 39 W/m² | - |
| 1787407652 | 23.33° C | 89% | 1021.1 hPa | 0 mm | - | 32 W/m² | - |
| 1787407348 | 23.33° C | 88% | 1021 hPa | 0 mm | - | 27 W/m² | - |
| 1787407044 | 23.33° C | 87% | 1020.8 hPa | 0 mm | - | 23 W/m² | - |
| 1787406740 | 23.89° C | 86% | 1020.9 hPa | 0 mm | - | 21 W/m² | - |
| 1787406434 | 23.89° C | 83% | 1020.4 hPa | 0 mm | - | 20 W/m² | - |
| 1787406130 | 23.89° C | 82% | 1020.3 hPa | 0 mm | - | 20 W/m² | - |
| 1787405826 | 23.89° C | 82% | 1020.5 hPa | 0 mm | - | 21 W/m² | - |
| 1787405523 | 23.89° C | 82% | 1019.6 hPa | 0 mm | - | 20 W/m² | - |
| 1787405222 | 24.44° C | 82% | 1019.7 hPa | 0 mm | - | 19 W/m² | - |
| 1787404920 | 24.44° C | 82% | 1019.8 hPa | 0 mm | - | 20 W/m² | - |
| 1787404615 | 24.44° C | 81% | 1019.6 hPa | 0 mm | - | 23 W/m² | - |
| 1787404314 | 24.44° C | 82% | 1019.5 hPa | 0 mm | - | 26 W/m² | - |
| 1787404010 | 23.89° C | 82% | 1019.3 hPa | 0 mm | - | 34 W/m² | - |
| 1787403705 | 23.89° C | 82% | 1019.5 hPa | 0 mm | - | 40 W/m² | - |
| 1787403404 | 23.89° C | 83% | 1019.6 hPa | 0 mm | - | 63 W/m² | - |
| 1787403101 | 23.89° C | 83% | 1019.4 hPa | 0 mm | - | 77 W/m² | - |
| 1787402796 | 23.89° C | 83% | 1019.7 hPa | 0 mm | - | 74 W/m² | - |
| 1787402491 | 23.33° C | 83% | 1019.4 hPa | 0 mm | - | 69 W/m² | - |
| 1787402190 | 23.33° C | 84% | 1019.3 hPa | 0 mm | - | 57 W/m² | - |
* Rain latest hour (hover to see other rain measurements)
** Current wind speed in m/s (hover to see current wind gust speed)